Flight Track Log - Related Links

Times and Time Zones

All times are in EDT time to prevent confusion due to time zone crossing. See the EGF4169 flight status page for this flight to view local times or setup timezone preferences in your user account.

Time Position Orientation Groundspeed Altitude Reporting Facility
EDT Latitude Longitude Course Direction KTS MPH feet Rate Location/Type
Sun 11:37:28 42.2664 -85.5742 294° West 158 182 2,600  Level Chicago Center
Sun 11:38:30 42.2997 -85.6156 317° Northwest 178 205 4,900 2,032 Climbing Chicago Center
Sun 11:39:00 42.3266 -85.7864 304° West  Level FlightAware
Sun 11:39:32 42.3278 -85.6897 297° West 208 239 6,800  Level Chicago Center
Sun 11:40:00 42.3568 -85.8635 304° West  Level FlightAware
Sun 11:40:34 42.3600 -85.7897 294° West 235 270 10,000  Level Chicago Center
Sun 11:41:00 42.3923 -85.9391 298° West  Level FlightAware
Sun 11:41:36 42.3889 -85.8731 295° West 242 278 11,800  Level Chicago Center
Sun 11:42:00 42.4229 -86.0186 294° West  Level FlightAware
Sun 11:42:37 42.4211 -85.9697 294° West 279 321 13,500  Level Chicago Center
Sun 11:43:39 42.4536 -86.0683 294° West 286 329 15,300 1,210 Climbing Chicago Center
Sun 11:44:41 42.4786 -86.1783 287° West 301 346 16,000 290 Climbing Chicago Center
Sun 11:45:43 42.4961 -86.3050 281° West 336 387 15,900 -48 Descending Chicago Center
Sun 11:46:45 42.4967 -86.4378 270° West 351 404 15,900 -146 Level Chicago Center
Sun 11:47:46 42.4811 -86.5692 261° West 354 407 15,600 -732 Descending Chicago Center
Sun 11:48:48 42.4653 -86.7181 262° West 334 384 14,400 -1,065 Descending Chicago Center
Sun 11:49:50 42.4517 -86.8458 262° West 342 394 13,400 -968 Descending Chicago Center
Sun 11:50:52 42.4375 -86.9758 262° West 349 402 12,400 -927 Descending Chicago Center
Sun 11:51:53 42.4225 -87.1036 261° West 344 396 11,500 -829 Descending Chicago Center
Sun 11:52:55 42.4069 -87.2289 260° West 339 390 10,700 -677 Descending Chicago Center
Sun 11:53:57 42.3822 -87.3306 252° West 303 349 10,100 -829 Descending Chicago Center
Sun 11:54:58 42.3033 -87.3922 210° Southwest 286 329 9,000 -537 Descending Chicago Center
Sun 11:56:00 42.2381 -87.4453 211° Southwest 275 316 9,000 -634 Level Chicago Center
Sun 11:57:01 42.1728 -87.4992 211° Southwest 276 318 7,700 -1,500 Descending Chicago Center
Sun 11:57:52 42.1167 -87.5500 214° Southwest 265 305 6,200 -1,243 Descending Chicago TRACON
Sun 11:58:52 42.0500 -87.6000 209° Southwest 235 270 5,400 -952 Descending Chicago TRACON
Sun 11:59:58 42.0167 -87.6667 236° Southwest 205 236 4,200 -1,091 Descending Chicago TRACON

Login

Don't have an account? Register now (free) for customized features, flight alerts, and more!